This demonstration page uses our WeatherBlox Daily Observations layout. Learn more.

Left ArrowRight Arrow

44.8408, -93.29828

Hourly Observations for May 29, 2015

Temp ( °F °C ) Dew Point ( °F °C ) Humidity (%) Winds ( mph kmh ) Pressure ( in mb ) Visibility ( mi km ) Precip ( " mm )
12:53 am 00:53 Cloudy 72 22.2 57 13.9 59 59 S 8 13 29.89 1012 10 16 0.00 0.00
1:53 am 01:53 Cloudy with Light Rain 69 20.6 61 16.1 76 76 S 12 19 29.89 1012 6 10 0.00 0.03
2:53 am 02:53 Cloudy with Light Rain 67 19.4 62 16.7 84 84 S 13 20 29.87 1012 7 11 0.01 0.25
3:53 am 03:53 Cloudy with Rain 65 18.3 63 17.2 93 93 SE 9 15 29.86 1011 7 11 0.20 5.08
4:16 am 04:16 Cloudy with Light Rain 64 17.8 62 16.7 93 93 SE 13 20 29.85 1011 6 10 0.02 0.51
4:53 am 04:53 Cloudy with Light Rain 65 18.3 62 16.7 90 90 SE 5 7 29.85 1011 7 11 0.06 1.52
5:03 am 05:03 Cloudy with Light Rain 64 18 63 17 94 94 Calm 29.88 1012 8 13 0.00 0.00
5:53 am 05:53 Cloudy 65 18.3 63 17.2 93 93 S 6 9 29.85 1011 9 14 0.03 0.76
6:53 am 06:53 Cloudy 65 18.3 62 16.7 90 90 S 7 11 29.86 1011 9 14 0.00 0.00
7:07 am 07:07 Mostly Cloudy 66 18.9 63 17.2 90 90 S 3 6 29.88 1012 8 13 0.00 0.00
7:53 am 07:53 Cloudy 66 18.9 63 17.2 90 90 S 10 17 29.85 1011 8 13 0.00 0.00
8:53 am 08:53 Cloudy 68 20 64 17.8 87 87 S 7 11 29.85 1011 9 14 0.00 0.00
9:53 am 09:53 Cloudy 69 20.6 65 18.3 87 87 W 6 9 29.87 1012 9 14 0.00 0.03
10:07 am 10:07 Cloudy 69 20.6 64 17.8 84 84 W 7 11 29.88 1012 10 16 0.00 0.00
10:14 am 10:14 Cloudy 69 20.6 64 17.8 84 84 VRB 7 11 29.88 1012 10 16 0.00 0.00
10:53 am 10:53 Cloudy 70 21.1 64 17.8 82 82 WSW 7 11 29.88 1012 10 16 0.00 0.00
11:53 am 11:53 Cloudy 71 21.7 63 17.2 76 76 SW 8 13 29.88 1012 10 16 0.00 0.00
12:09 pm 12:09 Cloudy 71 21.7 63 17.2 76 76 SW 9 15 29.85 1011 10 16 0.00 0.00
12:53 pm 12:53 Cloudy with Light Rain 70 21.1 63 17.2 79 79 WSW 13 20 29.88 1012 10 16 0.00 0.03
1:53 pm 13:53 Cloudy 71 21.7 63 17.2 76 76 WSW 9 15 29.89 1012 10 16 0.00 0.03
2:15 pm 14:15 Cloudy with Light Rain 68 20 64 17.8 87 87 NW 10 17 29.91 1013 10 16 0.00 0.03
2:39 pm 14:39 Cloudy with Light Rain 67 19.4 63 17.2 87 87 N 9 15 29.91 1013 5 8 0.01 0.25
2:53 pm 14:53 Cloudy with Rain 66 18.9 63 17.2 90 90 NNW 8 13 29.90 1012 5 8 0.02 0.51
3:05 pm 15:05 Cloudy with Rain 66 18.9 64 17.8 93 93 N 8 13 29.91 1013 4 6 0.04 1.02
3:53 pm 15:53 Cloudy with Rain 66 18.9 63 17.2 90 90 N 10 17 29.90 1012 5 8 0.09 2.29
4:09 pm 16:09 Cloudy with Light Rain 65 18.3 64 17.8 97 97 NNW 9 15 29.91 1013 10 16 0.00 0.03
4:41 pm 16:41 Cloudy with Light Rain 66 18.9 63 17.2 90 90 N 10 17 29.91 1013 5 8 0.00 0.03
4:53 pm 16:53 Cloudy with Light Rain 65 18.3 62 16.7 90 90 N 13 20 29.90 1012 10 16 0.00 0.03
5:53 pm 17:53 Cloudy with Rain 65 18.3 62 16.7 90 90 N 15 24 29.90 1013 3 5 0.02 0.51
6:09 pm 18:09 Cloudy with Light Rain 63 17.2 61 16.1 93 93 N 13 20 29.91 1013 3 5 0.01 0.25
6:53 pm 18:53 Cloudy with Light Rain 62 16.7 59 15 90 90 N 14 22 29.91 1013 6 10 0.05 1.27
7:00 pm 19:00 Cloudy with Light Rain 63 17 61 16 94 94 NNW 16 26 29.94 1014 6 10 0.00 0.00
7:05 pm 19:05 Cloudy with Light Rain 60 15.6 58 14.4 93 93 NNW 17 28 29.94 1014 4 6 0.01 0.25
7:17 pm 19:17 Cloudy with Light Rain 60 15.6 58 14.4 93 93 NNW 14 22 29.94 1014 7 11 0.02 0.51
7:46 pm 19:46 Cloudy with Light Rain 57 14 55 13 94 94 N 17 28 29.94 1014 6 10 0.00 0.00
7:53 pm 19:53 Cloudy with Light Rain 58 14.4 55 12.8 90 90 N 21 33 29.95 1014 9 14 0.04 1.02
8:09 pm 20:09 Cloudy 57 13.9 55 12.8 93 93 N 17 28 29.94 1014 10 16 0.00 0.03
8:53 pm 20:53 Cloudy with Light Rain 56 13.3 54 12.2 93 93 N 10 17 29.98 1015 10 16 0.00 0.03
9:15 pm 21:15 Cloudy with Light Rain 55 12.8 53 11.7 93 93 N 17 28 30.00 1016 10 16 0.00 0.03
9:53 pm 21:53 Cloudy with Light Rain 54 12.2 52 11.1 93 93 N 15 24 30.02 1017 8 13 0.00 0.03
10:53 pm 22:53 Cloudy with Light Rain 54 12.2 52 11.1 93 93 NNW 15 24 30.04 1017 9 14 0.02 0.51
11:40 pm 23:40 Cloudy 54 12 50 10 88 88 N 13 20 30.06 1018 10 16 0.00 0.00
11:53 pm 23:53 Cloudy 54 12.2 50 10 87 87 N 14 22 30.05 1018 10 16 0.00 0.03

Powered by AerisWeather